| time (UTC) | temp F | wind direction | speed knots | gust knots | rain 1hr in | rain 24hr in | rain mn in | humidity % | barometer mb |
| 20260902230003 | 95 | 90 | 0.0 | 0.0 | 0.00 | 0.00 | 0.00 | 52 | 1011.5 |
| 20260902224504 | 96 | 322 | 0.0 | 0.0 | 0.00 | 0.00 | 0.00 | 54 | 1011.7 |
| 20260902223007 | 97 | 315 | 0.0 | 0.0 | 0.00 | 0.00 | 0.00 | 51 | 1011.6 |
| 20260902221508 | 97 | 303 | 0.0 | 2.6 | 0.00 | 0.00 | 0.00 | 51 | 1011.7 |
| 20260902220006 | 97 | 144 | 0.0 | 1.7 | 0.00 | 0.00 | 0.00 | 50 | 1011.9 |
| 20260902214521 | 97 | 346 | 0.0 | 3.5 | 0.00 | 0.00 | 0.00 | 50 | 1012.0 |
| 20260902213015 | 97 | 271 | 0.0 | 2.6 | 0.00 | 0.00 | 0.00 | 51 | 1012.0 |
| 20260902211512 | 97 | 292 | 0.0 | 2.6 | 0.00 | 0.00 | 0.00 | 54 | 1012.2 |
| 20260902210005 | 97 | 227 | 0.0 | 5.2 | 0.00 | 0.00 | 0.00 | 52 | 1012.3 |
| 20260902204510 | 96 | 218 | 0.9 | 2.6 | 0.00 | 0.00 | 0.00 | 50 | 1012.3 |
| 20260902203015 | 96 | 190 | 0.0 | 7.8 | 0.00 | 0.00 | 0.00 | 52 | 1012.3 |
| 20260902201524 | 96 | 71 | 0.9 | 5.2 | 0.00 | 0.00 | 0.00 | 52 | 1012.4 |
| 20260902200026 | 96 | 29 | 0.9 | 3.5 | 0.00 | 0.00 | 0.00 | 53 | 1012.7 |
| 20260902194535 | 95 | 81 | 0.0 | 2.6 | 0.00 | 0.00 | 0.00 | 52 | 1012.8 |
| 20260902193010 | 94 | 140 | 0.0 | 5.2 | 0.00 | 0.00 | 0.00 | 55 | 1013.0 |
| 20260902191518 | 94 | 56 | 0.0 | 3.5 | 0.00 | 0.00 | 0.00 | 55 | 1013.0 |
| 20260902190013 | 93 | 12 | 0.0 | 3.5 | 0.00 | 0.00 | 0.00 | 54 | 1013.2 |
| 20260902184514 | 93 | 323 | 0.9 | 4.3 | 0.00 | 0.00 | 0.00 | 54 | 1013.4 |
| 20260902183030 | 93 | 199 | 0.0 | 4.3 | 0.00 | 0.00 | 0.00 | 55 | 1013.6 |
| 20260902181516 | 92 | 312 | 0.0 | 5.2 | 0.00 | 0.00 | 0.00 | 56 | 1013.7 |
| 20260902180020 | 91 | 9 | 0.0 | 4.3 | 0.00 | 0.00 | 0.00 | 57 | 1013.8 |
| 20260902174524 | 90 | 348 | 0.0 | 2.6 | 0.00 | 0.00 | 0.00 | 58 | 1013.9 |
| 20260902173026 | 89 | 325 | 0.0 | 2.6 | 0.00 | 0.00 | 0.00 | 59 | 1014.0 |
| 20260902171518 | 88 | 79 | 0.9 | 6.1 | 0.00 | 0.00 | 0.00 | 61 | 1014.1 |
| 20260902170019 | 87 | 156 | 0.9 | 5.2 | 0.00 | 0.00 | 0.00 | 61 | 1014.2 |
| 20260902164523 | 87 | 201 | 0.9 | 3.5 | 0.00 | 0.00 | 0.00 | 62 | 1014.2 |
| 20260902163028 | 86 | 232 | 0.9 | 4.3 | 0.00 | 0.00 | 0.00 | 63 | 1014.2 |
| 20260902161537 | 85 | 298 | 0.0 | 2.6 | 0.00 | 0.00 | 0.00 | 65 | 1014.4 |
| 20260902160029 | 84 | 256 | 0.9 | 2.6 | 0.00 | 0.00 | 0.00 | 69 | 1014.5 |
| 20260902154521 | 83 | 269 | 0.9 | 3.5 | 0.00 | 0.00 | 0.00 | 69 | 1014.5 |
| 20260902153023 | 82 | 230 | 0.0 | 3.5 | 0.00 | 0.00 | 0.00 | 71 | 1014.5 |
| 20260902151503 | 81 | 246 | 0.0 | 5.2 | 0.00 | 0.00 | 0.00 | 72 | 1014.5 |
| 20260902150003 | 80 | 135 | 0.0 | 1.7 | 0.00 | 0.00 | 0.00 | 75 | 1014.6 |
| 20260902144502 | 79 | 135 | 0.0 | 2.6 | 0.00 | 0.00 | 0.00 | 75 | 1014.6 |
| 20260902143003 | 78 | 135 | 0.0 | 1.7 | 0.00 | 0.00 | 0.00 | 76 | 1014.7 |
| 20260902141502 | 77 | 135 | 0.0 | 0.0 | 0.00 | 0.00 | 0.00 | 77 | 1014.5 |
| 20260902140013 | 76 | 135 | 0.0 | 0.0 | 0.00 | 0.00 | 0.00 | 78 | 1014.7 |
| 20260902134508 | 76 | 135 | 0.0 | 0.0 | 0.00 | 0.00 | 0.00 | 79 | 1014.7 |
| 20260902133021 | 75 | 135 | 0.0 | 0.0 | 0.00 | 0.00 | 0.00 | 80 | 1014.9 |
| 20260902131522 | 74 | 135 | 0.0 | 0.9 | 0.00 | 0.00 | 0.00 | 80 | 1014.8 |
| 20260902130004 | 74 | 135 | 0.0 | 0.0 | 0.00 | 0.00 | 0.00 | 80 | 1014.9 |
| 20260902124515 | 74 | 135 | 0.0 | 0.0 | 0.00 | 0.00 | 0.00 | 80 | 1014.9 |
| 20260902123018 | 74 | 135 | 0.0 | 0.0 | 0.00 | 0.00 | 0.00 | 79 | 1014.8 |
| 20260902121515 | 75 | 135 | 0.0 | 0.0 | 0.00 | 0.00 | 0.00 | 79 | 1014.9 |
| 20260902120008 | 75 | 135 | 0.0 | 0.0 | 0.00 | 0.00 | 0.00 | 78 | 1015.0 |
| 20260902114511 | 75 | 135 | 0.0 | 0.0 | 0.00 | 0.00 | 0.00 | 77 | 1015.2 |
| 20260902113015 | 76 | 135 | 0.0 | 0.0 | 0.00 | 0.00 | 0.00 | 76 | 1014.9 |
| 20260902111519 | 76 | 135 | 0.9 | 2.6 | 0.00 | 0.00 | 0.00 | 75 | 1014.6 |
| 20260902110031 | 76 | 135 | 0.0 | 3.5 | 0.00 | 0.00 | 0.00 | 74 | 1014.9 |
| 20260902104543 | 77 | 135 | 0.9 | 3.5 | 0.00 | 0.00 | 0.00 | 72 | 1015.0 |
| 20260902103012 | 76 | 135 | 0.0 | 3.5 | 0.00 | 0.00 | 0.00 | 72 | 1015.2 |
| 20260902101514 | 76 | 135 | 0.0 | 4.3 | 0.00 | 0.00 | 0.00 | 73 | 1015.1 |
| 20260902100010 | 76 | 135 | 0.0 | 1.7 | 0.00 | 0.00 | 0.00 | 73 | 1015.0 |
| 20260902094530 | 75 | 135 | 0.0 | 4.3 | 0.00 | 0.00 | 0.00 | 75 | 1015.0 |
| 20260902093033 | 75 | 135 | 0.0 | 1.7 | 0.00 | 0.00 | 0.00 | 76 | 1013.8 |
| 20260902091517 | 75 | 135 | 0.0 | 0.0 | 0.00 | 0.00 | 0.00 | 76 | 1013.4 |
| 20260902090002 | 75 | 135 | 0.0 | 0.9 | 0.00 | 0.00 | 0.00 | 75 | 1013.5 |
| 20260902084502 | 76 | 135 | 0.0 | 0.0 | 0.00 | 0.00 | 0.00 | 75 | 1013.5 |
| 20260902083006 | 76 | 135 | 0.0 | 0.0 | 0.00 | 0.00 | 0.00 | 75 | 1013.4 |
| 20260902081504 | 76 | 135 | 0.0 | 0.0 | 0.00 | 0.00 | 0.00 | 75 | 1013.4 |
| 20260902080008 | 76 | 135 | 0.0 | 0.9 | 0.00 | 0.00 | 0.00 | 74 | 1013.4 |
| 20260902074505 | 76 | 135 | 0.0 | 0.0 | 0.00 | 0.00 | 0.00 | 74 | 1013.3 |
| 20260902073004 | 77 | 135 | 0.0 | 0.9 | 0.00 | 0.00 | 0.00 | 73 | 1013.4 |
| 20260902071504 | 77 | 135 | 0.0 | 0.0 | 0.00 | 0.00 | 0.00 | 73 | 1013.1 |
| 20260902070006 | 77 | 135 | 0.0 | 0.0 | 0.00 | 0.00 | 0.00 | 73 | 1012.9 |
| 20260902064507 | 77 | 135 | 0.0 | 0.0 | 0.00 | 0.00 | 0.00 | 73 | 1012.9 |
| 20260902063003 | 77 | 135 | 0.0 | 0.0 | 0.00 | 0.00 | 0.00 | 73 | 1012.9 |
| 20260902061505 | 77 | 135 | 0.0 | 1.7 | 0.00 | 0.00 | 0.00 | 73 | 1012.9 |
| 20260902060005 | 77 | 135 | 0.0 | 0.9 | 0.00 | 0.00 | 0.00 | 73 | 1013.0 |
| 20260902054513 | 78 | 135 | 0.0 | 2.6 | 0.00 | 0.00 | 0.00 | 73 | 1013.1 |
| 20260902053011 | 78 | 135 | 0.0 | 0.9 | 0.00 | 0.00 | 0.00 | 73 | 1013.2 |
| 20260902051509 | 78 | 135 | 0.0 | 0.0 | 0.00 | 0.00 | 0.00 | 73 | 1013.4 |
| 20260902050008 | 78 | 135 | 0.0 | 0.0 | 0.00 | 0.00 | 0.00 | 73 | 1013.3 |
| 20260902044533 | 79 | 135 | 0.0 | 0.0 | 0.00 | 0.00 | 0.00 | 72 | 1013.3 |
| 20260902043020 | 79 | 135 | 0.0 | 1.7 | 0.00 | 0.00 | 0.00 | 72 | 1013.3 |
| 20260902041524 | 80 | 135 | 0.0 | 0.0 | 0.00 | 0.00 | 0.00 | 71 | 1013.2 |
| 20260902040024 | 80 | 135 | 0.0 | 0.0 | 0.00 | 0.00 | 0.00 | 70 | 1013.5 |
| 20260902034510 | 80 | 135 | 0.0 | 0.0 | 0.00 | 0.00 | 0.00 | 70 | 1013.5 |
| 20260902033012 | 81 | 135 | 0.0 | 0.0 | 0.00 | 0.00 | 0.00 | 69 | 1013.4 |
| 20260902031517 | 81 | 135 | 0.0 | 0.0 | 0.00 | 0.00 | 0.00 | 69 | 1013.3 |
| 20260902030026 | 82 | 135 | 0.0 | 0.9 | 0.00 | 0.00 | 0.00 | 68 | 1013.1 |
| 20260902024527 | 82 | 135 | 0.0 | 0.9 | 0.00 | 0.00 | 0.00 | 68 | 1013.0 |
| 20260902023010 | 83 | 135 | 0.0 | 1.7 | 0.00 | 0.00 | 0.00 | 67 | 1013.0 |
| 20260902021521 | 83 | 135 | 0.0 | 0.9 | 0.00 | 0.00 | 0.00 | 66 | 1012.9 |
| 20260902020032 | 84 | 135 | 0.0 | 0.0 | 0.00 | 0.00 | 0.00 | 65 | 1012.8 |
| 20260902014540 | 85 | 135 | 0.0 | 1.7 | 0.00 | 0.00 | 0.00 | 64 | 1012.6 |
| 20260902013014 | 85 | 135 | 0.0 | 1.7 | 0.00 | 0.00 | 0.00 | 63 | 1012.4 |
| 20260902011511 | 86 | 135 | 0.0 | 0.9 | 0.00 | 0.00 | 0.00 | 62 | 1012.3 |
| 20260902010027 | 87 | 135 | 0.0 | 1.7 | 0.00 | 0.00 | 0.00 | 61 | 1012.3 |
| 20260902004531 | 88 | 135 | 0.0 | 0.9 | 0.00 | 0.00 | 0.00 | 60 | 1012.3 |
| 20260902003032 | 89 | 135 | 0.0 | 3.5 | 0.00 | 0.00 | 0.00 | 59 | 1012.2 |
| 20260902001527 | 90 | 135 | 0.0 | 0.9 | 0.00 | 0.00 | 0.00 | 58 | 1012.4 |
| 20260902000032 | 91 | 135 | 0.0 | 3.5 | 0.00 | 0.00 | 0.00 | 56 | 1012.4 |
| 20260901234536 | 92 | 135 | 0.0 | 0.0 | 0.00 | 0.00 | 0.00 | 54 | 1012.4 |
| 20260901233014 | 93 | 344 | 0.0 | 1.7 | 0.00 | 0.00 | 0.00 | 53 | 1012.4 |
| 20260901231533 | 94 | 319 | 0.0 | 4.3 | 0.00 | 0.00 | 0.00 | 50 | 1012.4 |